sat.trackr.live / text

‹ back to catalog

STARLINK-35904

NORAD 66627 · 2025-271L

PAYLOAD ACTIVE UNKNOWN

§ Identity

Operator
Country
US
Launch date
2025-11-23
Launch site
AFWTR
Launch vehicle
Mass (kg)
RCS (m²)

Purposes: comms

External: N2YO · Heavens-Above · Gunter

§ Orbital elements

Epoch: 2026-09-20T09:11:21.006528Z

Period
93.85 min
Inclination
53.1586°
Eccentricity
0.0001090
Mean motion
15.34409977 rev/d
Perigee alt
461.9 km
Apogee alt
463.4 km
Semi-major
6,840.8 km
B*
3.4962e-4
RAAN
314.2921°
Arg perigee
84.3621°
Mean anomaly
275.7506°
Rev number
4,735

§ Raw data

STARLINK-359041 66627U 25271L   26263.38288202  .00011458  00000+0  34962-3 0  99912 66627  53.1586 314.2921 0001090  84.3621 275.7506 15.34409977 47353

JSON: /api/v1/satellites/66627 · /tle

For live sub-satellite position, see the globe view (requires WebGL).

§ Visibility from observer

Set your observer location to see the next 7 days of passes ≥ 10°. The values pass through the URL so the page stays shareable.

No JS? Fill the form by hand. The geolocation button needs JavaScript.